Location: Coupvray
(48.8929°N, 2.7967°E)
Time: 14:13:47
(UTC+00:00)

Altair 2 - Pass Details

Date: 19 January 2021
Orbit: 837 x 949 km, 90.2° (Epoch: 28 February)

Event Time Altitude Azimuth Distance (km) Brightness Sun altitude
Rises 19:22:35 0° 209° (SSW) 3,398 11.2 -28.6°
Reaches altitude 10° 19:25:18 10° 221° (SW) 2,458 10.5 -29.0°
Maximum altitude 19:29:59 28° 279° (W) 1,516 9.6 -29.8°
Drops below altitude 10° 19:34:42 10° 339° (NNW) 2,464 10.4 -30.5°
Sets 19:37:27 0° 351° (N) 3,408 11.0 -31.0°
